Trieste, Italy

5:16 AM CEST on September 20, 2017 (GMT +0200)
Trieste

Weather History for LIVT - March, 2013

Change the Weather History Date:

Saturday, March 9, 2013

  Actual Average Record
Temperature  
Mean Temperature 52 °F -  
Max Temperature 52 °F 56 °F 65 °F (2014)
Min Temperature 51 °F 46 °F 32 °F (2011)
Degree Days  
Heating Degree Days 14    
Growing Degree Days 2 (Base 50)    
Moisture  
Dew Point 52 °F    
Average Humidity 97    
Maximum Humidity 100    
Minimum Humidity 88    
Precipitation  
Precipitation 0.28 in 0.10 in - ()
Sea Level Pressure  
Sea Level Pressure 29.61 in    
Wind  
Wind Speed 1 mph ()    
Max Wind Speed 7 mph    
Max Gust Speed -    
Visibility 1.6 miles    
Events Fog , Rain    
Averages and records for this station are not official NWS values.
T = Trace of Precipitation, MM = Missing Value Source: Averaged Metar Reports

Daily Weather History Graph

Daily Weather History Graph

Search for Another Location

Airport or City:

Trip Planner

Search our weather history database for the weather conditions in past years. The results will help you decide how hot, cold, wet, or windy it might be!

Date:

Astronomy

Mar. 09, 2013 Rise Set
Actual Time 6:28 AM CET 6:02 PM CET
Civil Twilight 5:59 AM CET 6:32 PM CET
Nautical Twilight 5:24 AM CET 7:06 PM CET
Astronomical Twilight 4:50 AM CET 7:41 PM CET
Moon 4:48 AM CET (3/9) 3:40 PM CET (3/9)
Length of Visible Light 12h 33m
Length of Day
11h 33m
Waning Crescent, 7% of the Moon is Illuminated
Mar 9
Waning Crescent
Mar 11
New
Mar 19
First Quarter
Mar 27
Full
Apr 3
Last Quarter

Hourly Weather History & Observations

Time (CET) Temp. Dew Point Humidity Pressure Visibility Wind Dir Wind Speed Gust Speed Precip Events Conditions
12:55 AM 51.8 °F 51.8 °F 100% 29.62 in 1.6 mi Calm Calm - N/A   Drizzle
1:00 AM 52 °F 51 °F 96% 29.63 in 1 mi Calm Calm - - Rain Drizzle
1:55 AM 51.8 °F 51.8 °F 100% 29.62 in 1.9 mi Calm Calm - N/A   Drizzle
2:55 AM 51.8 °F 51.8 °F 100% 29.59 in 1.9 mi Calm Calm - N/A   Drizzle
3:55 AM 51.8 °F 50.0 °F 94% 29.59 in 1.9 mi Calm Calm - N/A   Drizzle
4:55 AM 51.8 °F 50.0 °F 94% 29.59 in 1.2 mi Calm Calm - N/A   Light Drizzle
5:55 AM 69.8 °F 69.8 °F 100% 29.56 in 0.9 mi Calm Calm - N/A   Light Drizzle
6:55 AM 51.8 °F 51.8 °F 100% 29.59 in 0.2 mi Calm Calm - N/A Fog , Rain Light Rain
7:00 AM 52 °F 51 °F 96% 29.60 in 0 mi Calm Calm - - Rain Light Rain
7:55 AM 51.8 °F 51.8 °F 100% 29.59 in 0.1 mi Calm Calm - N/A Fog , Rain Light Rain
8:55 AM 51.8 °F 51.8 °F 100% 29.59 in 0.1 mi SSE 2.3 mph - N/A Fog , Rain Light Rain
9:55 AM 51.8 °F 51.8 °F 100% 29.62 in 0.1 mi SE 1.2 mph - N/A Rain Light Rain
10:55 AM 51.8 °F 51.8 °F 100% 29.62 in 0.1 mi South 2.3 mph - N/A Fog , Rain Light Rain
11:55 AM 51.8 °F 51.8 °F 100% 29.62 in 0.1 mi SSW 2.3 mph - N/A Fog Light Drizzle
12:55 PM 51.8 °F 51.8 °F 100% 29.62 in 0.1 mi Calm Calm - N/A Fog Light Drizzle
1:00 PM 52 °F 51 °F 96% 29.64 in 0 mi Calm Calm - - Rain Light Drizzle
1:55 PM 51.8 °F 51.8 °F 100% 29.62 in 0.1 mi Calm Calm - N/A Fog Light Drizzle
2:55 PM 51.8 °F 51.8 °F 100% 29.62 in 0.2 mi SW 2.3 mph - N/A Fog Light Drizzle
3:55 PM 51.8 °F 51.8 °F 100% 29.62 in 0.2 mi Calm Calm - N/A Fog Light Drizzle
4:55 PM 51.8 °F 50.0 °F 94% 29.62 in 1.9 mi ENE 1.2 mph - N/A   Light Drizzle
5:55 PM 51.8 °F 51.8 °F 100% 29.62 in 2.5 mi WSW 2.3 mph - N/A   Mostly Cloudy
6:55 PM 51.8 °F 50.0 °F 94% 29.62 in 0.7 mi Variable 3.5 mph - N/A   Light Drizzle
7:00 PM 52 °F 51 °F 94% 29.63 in 1 mi 3.5 mph - - Rain Light Drizzle
7:55 PM 51.8 °F 50.0 °F 94% 29.62 in 3.1 mi East 4.6 mph - N/A   Light Drizzle
8:55 PM 51.8 °F 50.0 °F 94% 29.62 in 6.2 mi East 6.9 mph - N/A   Scattered Clouds
9:55 PM 51.8 °F 50.0 °F 94% 29.62 in 6.2 mi ENE 3.5 mph - N/A   Scattered Clouds
10:55 PM 51.8 °F 48.2 °F 88% 29.59 in 6.2 mi East 6.9 mph - N/A   Scattered Clouds
11:55 PM 51.8 °F 50.0 °F 94% 29.59 in 6.2 mi SE 3.5 mph - N/A Rain Light Rain